Weather History for Klamath Falls, OR

Change the Weather History Date:

Wednesday, December 12, 2012

  Actual Average Record
Temperature  
Mean Temperature 29 °F 30 °F  
Max Temperature 37 °F 38 °F 55 °F (2010)
Min Temperature 21 °F 21 °F -1 °F (2013)
Degree Days  
Heating Degree Days 36 36  
Month to date heating degree days 356 418  
Since 1 July heating degree days 1826 2220  
Cooling Degree Days 0 0  
Month to date cooling degree days 0 0  
Year to date cooling degree days 177 169  
Moisture  
Dew Point 24 °F    
Average Humidity 87    
Maximum Humidity 100    
Minimum Humidity 64    
Precipitation  
Precipitation 0.00 in 0.04 in 1.34 in (1969)
Month to date precipitation 1.22 0.55  
Year to date precipitation 9.33 14.06  
Sea Level Pressure  
Sea Level Pressure 29.79 in    
Wind  
Wind Speed 4 mph (West)    
Max Wind Speed 13 mph    
Max Gust Speed 14 mph    
Visibility 10 miles    
Events      
T = Trace of Precipitation, MM = Missing Value Source: NWS Daily Summary

Daily Weather History Graph

Daily Weather History Graph

Search for Another Location

Airport:

Trip Planner

Search our weather history database for the weather conditions in past years. The results will help you decide how hot, cold, wet, or windy it might be!

Date:

Astronomy

Dec. 12, 2012 Rise Set
Actual Time 7:26 AM PST 4:35 PM PST
Civil Twilight 6:54 AM PST 5:06 PM PST
Nautical Twilight 6:19 AM PST 5:42 PM PST
Astronomical Twilight 5:45 AM PST 6:16 PM PST
Moon 6:36 AM PST (12/12) 4:18 PM PST (12/12)
Length of Visible Light 10h 12m
Length of Day
9h 08m
Waning Crescent, 0% of the Moon is Illuminated
Dec 12
Waning Crescent
Dec 13
New
Dec 19
First Quarter
Dec 28
Full
Jan 4
Last Quarter

Hourly Weather History & Observations

Time (PST) Temp. Windchill Dew Point Humidity Pressure Visibility Wind Dir Wind Speed Gust Speed Precip Events Conditions
12:20 AM 28.4 °F 23.3 °F 28.4 °F 100% 29.66 in 8.0 mi South 4.6 mph - N/A   Mostly Cloudy
12:53 AM 32.0 °F 24.2 °F 30.0 °F 92% 29.69 in 10.0 mi WSW 9.2 mph - N/A   Overcast
1:53 AM 32.0 °F 24.8 °F 30.0 °F 92% 29.68 in 10.0 mi West 8.1 mph - N/A   Overcast
2:53 AM 30.0 °F - 28.0 °F 92% 29.70 in 10.0 mi Calm Calm - N/A   Partly Cloudy
3:53 AM 28.9 °F 23.9 °F 27.0 °F 92% 29.70 in 10.0 mi NW 4.6 mph - N/A   Mostly Cloudy
4:46 AM 26.6 °F - 24.8 °F 93% 29.69 in 10.0 mi Calm Calm - N/A   Mostly Cloudy
4:53 AM 27.0 °F - 25.0 °F 92% 29.73 in 10.0 mi Calm Calm - N/A   Overcast
5:13 AM 26.6 °F 21.2 °F 24.8 °F 93% 29.70 in 10.0 mi South 4.6 mph - N/A   Mostly Cloudy
5:53 AM 27.0 °F - 24.1 °F 89% 29.75 in 10.0 mi Calm Calm - N/A   Mostly Cloudy
6:01 AM 28.4 °F 22.2 °F 24.8 °F 86% 29.71 in 10.0 mi WNW 5.8 mph - N/A   Mostly Cloudy
6:53 AM 26.1 °F 17.6 °F 23.0 °F 88% 29.77 in 10.0 mi West 8.1 mph - N/A   Mostly Cloudy
7:53 AM 25.0 °F 16.3 °F 21.0 °F 85% 29.79 in 10.0 mi WNW 8.1 mph - N/A   Mostly Cloudy
8:53 AM 24.1 °F - 21.9 °F 91% 29.82 in 10.0 mi Calm Calm - N/A   Scattered Clouds
9:53 AM 28.9 °F 25.2 °F 25.0 °F 85% 29.83 in 10.0 mi SSE 3.5 mph - N/A   Mostly Cloudy
10:53 AM 30.0 °F 25.2 °F 25.0 °F 82% 29.85 in 10.0 mi SSW 4.6 mph - N/A   Mostly Cloudy
11:53 AM 32.0 °F 28.7 °F 24.1 °F 73% 29.82 in 10.0 mi NW 3.5 mph - N/A   Mostly Cloudy
12:53 PM 34.0 °F 28.0 °F 24.1 °F 67% 29.81 in 10.0 mi West 6.9 mph - N/A   Mostly Cloudy
1:53 PM 35.1 °F 30.1 °F 24.1 °F 64% 29.79 in 10.0 mi West 5.8 mph - N/A   Mostly Cloudy
2:53 PM 34.0 °F 28.0 °F 24.1 °F 67% 29.80 in 10.0 mi West 6.9 mph - N/A   Mostly Cloudy
4:53 PM 28.0 °F 22.8 °F 25.0 °F 88% 29.84 in 10.0 mi WNW 4.6 mph - N/A   Scattered Clouds
5:53 PM 28.0 °F - 25.0 °F 88% 29.85 in 7.0 mi Calm Calm - N/A   Scattered Clouds
6:53 PM 26.1 °F 21.9 °F 23.0 °F 88% 29.88 in 10.0 mi WNW 3.5 mph - N/A   Scattered Clouds
7:53 PM 24.1 °F - 23.0 °F 96% 29.89 in 10.0 mi Calm Calm - N/A   Scattered Clouds
8:53 PM 23.0 °F - 19.9 °F 88% 29.90 in 10.0 mi Calm Calm - N/A   Scattered Clouds
9:53 PM 21.9 °F - 19.9 °F 92% 29.91 in 10.0 mi Calm Calm - N/A   Scattered Clouds
10:53 PM 21.9 °F 13.4 °F 19.9 °F 92% 29.92 in 10.0 mi NW 6.9 mph - N/A   Clear
11:53 PM 24.1 °F 16.0 °F 21.0 °F 88% 29.92 in 10.0 mi NNW 6.9 mph - N/A   Clear